www.pogodaiklimat.ru

Погода и климат >> Архив погоды >> Индия >> Западная Бенгалия >> Куч-Бихар


ПОГОДА в Куч-Бихар

  • Прогноз погоды в Куч-Бихар
  • Монитор погоды в Куч-Бихар

АРХИВ ПОГОДЫ в Куч-Бихар

Время (UTC), дата Ветер
(напр.,м/с)
 
Видим.   Явления Облачность Т
(С)
Тd
(С)
f
(%)
Тe
(С)
Тes
(С)
Комфортность P
(гПа)
Po
(гПа)
Тmin
(С)
Tmax
(С)
R
(мм)
R24
(мм)
S
(см)
03 16.09 штиль 0 2000 м мгла 10/10 600 м
[Sc]
+28.2 +26.5 91 +44 +44 опасность
перегрева
1006.9 1002.0 +25.6 0.2
06 16.09 ЮЗ 2 2000 м слаб. дождь {гроза} 10/10 600 м
[Frnb]
+27.4 +26.6 95 +42 +42 опасность
перегрева
1006.6 1001.7 26
09 16.09 штиль 0 4000 м мгла {дождь} 10/10 600 м
[St]
+28.8 +26.3 86 +44 +44 опасность
перегрева
1003.7 998.8 26
12 16.09 штиль 0 2000 м мгла 10/10 600 м
[St]
+28.2 +26.5 91 +44 +44 опасность
перегрева
1004.0 999.1 +29.5 26
03 17.09 штиль 0 2000 м мгла {дождь} 10/10 600 м
[St]
+27.0 +26.2 95 +41 +41 опасность
перегрева
1009.1 1004.2 +25.2 34
06 17.09 С 2 4000 м мгла {гроза, дождь} 9/6 600 м
[Sc diur, vesp Ac trans]
+27.2 +25.5 90 +40 +44 очень
душно
1009.6 1004.7 13
09 17.09 Ю 2 4000 м {дождь} 10/10 600 м
[St]
+28.4 +26.2 88 +43 +43 опасность
перегрева
1007.4 1002.5 13
12 17.09 штиль 0 2000 м мгла {дождь} 9/6 600 м
[Sc Ac trans Ci fib]
+27.0 +26.2 95 +41 +41 опасность
перегрева
1006.4 1001.5 +29.6 13
03 18.09 штиль 0 4000 м мгла 9/6 600 м
[Sc diur, vesp Ac trans Ci fib]
+29.4 +26.0 82 +44 +47 опасность
перегрева
1012.2 1007.3 +25.0 13
06 18.09 штиль 0 4000 м 6/4 600 м
[Sc diur, vesp Ac trans Ci fib]
+31.8 +26.5 74 +49 +61 опасность
перегрева
1011.6 1006.7
09 18.09 штиль 0 4000 м 8/3 600 м
[Sc diur, vesp Ac trans]
+32.4 +26.9 73 +50 +55 опасность
перегрева
1008.5 1003.7
12 18.09 штиль 0 4000 м мгла 4/1 600 м
[Sc diur, vesp Ac trans Ci fib]
+31.2 +27.3 80 +50 +50 опасность
перегрева
1007.9 1003.0 +34.0
03 19.09 штиль 0 4000 м мгла 3/1 600 м
[Sc diur, vesp Ac trans]
+31.0 +27.3 81 +49 +59 опасность
перегрева
1012.2 1007.3 +25.2
06 19.09 штиль 0 4000 м мгла {дождь} 4/4 600 м
[Cu med, cong]
+33.8 +27.8 71 +54 +68 опасность
перегрева
1010.3 1005.5 0.1
09 19.09 ЮЗ 2 4000 м 6/6 600 м
[Sc diur, vesp]
+34.8 +26.5 62 +51 +55 опасность
перегрева
1007.0 1002.2 0.1
12 19.09 штиль 0 4000 м мгла 4/4 600 м
[Sc diur, vesp]
+31.4 +27.0 78 +49 +49 опасность
перегрева
1007.1 1002.3 +35.6 0.1
03 20.09 штиль 0 4000 м мгла 3/1 600 м
[Sc diur, vesp Ac trans]
+29.6 +27.4 88 +48 +57 опасность
перегрева
1010.6 1005.7 +25.1 0.1
06 20.09 штиль 0 4000 м мгла 9/9 600 м
[Sc diur, vesp]
+32.6 +28.2 78 +54 +56 опасность
перегрева
1009.0 1004.2
09 20.09 ЮЗ 2 4000 м 9/6 600 м
[Sc diur, vesp Ci fib]
+34.6 +28.6 71 +57 +60 опасность
перегрева
1005.8 1001.0
12 20.09 В 2 4000 м мгла 8/3 600 м
[Sc diur, vesp Ac trans Ci fib]
+29.0 +26.2 85 +44 +44 опасность
перегрева
1006.0 1001.1 +35.1
03 21.09 СВ 1 4000 м 3/1 600 м
[Sc diur, vesp Ac trans]
+30.0 +25.8 78 +45 +52 опасность
перегрева
1009.5 1004.6 +25.6
06 21.09 ЮВ 1 4000 м 4/3 600 м
[Sc diur, vesp Ci fib]
+34.0 +28.9 75 +57 +71 опасность
перегрева
1008.6 1003.8
09 21.09 ЮВ 1 4000 м 8/4 600 м
[Sc diur, vesp Ci fib]
+32.8 +27.6 74 +52 +58 опасность
перегрева
1004.8 1000.0
12 21.09 штиль 0 4000 м гроза, ливневой дождь 8/6 600 м
[Cb cap]
+28.0 +25.2 85 +41 +41 опасность
перегрева
1007.5 1002.6 +35.6 0.0
15 21.09 0 н/о
03 22.09 штиль 0 2000 м слаб. дождь {гроза} 10/8 600 м
[Frnb As op]
+26.8 +26.0 95 +40 +40 очень
душно
1011.9 1007.0 +25.6 4
06 22.09 В 2 4000 м мгла 9/3 600 м
[Cu Sc Ac und Cc]
+29.8 +26.3 82 +46 +53 опасность
перегрева
1010.6 1005.7 0.4
09 22.09 СВ 2 4000 м 8/5 600 м
[Sc diur, vesp Ac trans]
+33.4 +26.5 67 +50 +53 опасность
перегрева
1006.9 1002.1 0.4
12 22.09 штиль 0 4000 м мгла 6/4 600 м
[Sc diur, vesp Ac trans]
+29.0 +25.9 83 +43 +43 опасность
перегрева
1008.9 1004.0 +33.9 0.4

 

Местоположение метеостанции Куч-Бихар (Западная Бенгалия, Индия): широта 26.33 долгота 89.47 высота над уровнем моря 43 м.

В архиве по умолчанию представлена погода в Куч-Бихар за последнюю неделю. Архивные данные за месяц целиком и за предыдущие месяцы, начиная с января 2011 года, Вы можете получить, выбрав интересующий диапазон дат из раскрывающегося списка и нажав кнопку "Ввод!".


*Определитесь, кто Вы:
робот инопланетянин человек

Внимание! Время в таблицах - всемирное. Для получения местного времени необходимо прибавить поправку, которая равна 5.5 ч.

Смотрите также архив погоды в соседних городах и на ближайших метеорологических станциях:

Погода в Раджархэте (Бангладеш) (59 км)
Погода в Дхубри (Ассам, Индия) (61 км)
Погода в Рангпуре (Бангладеш) (71 км)
Погода в Джалпайгури (Западная Бенгалия, Индия) (78 км)
Погода в Саидпуре (Бангладеш) (85 км)
Погода в Тетулии (Бангладеш) (86 км)
Погода в Димле (Бангладеш) (96 км)
Погода в Динаджпуре (Бангладеш) (109 км)
Погода в Гоалпара (Ассам, Индия) (117 км)
Погода в Силигури (Западная Бенгалия, Индия) (120 км)

Пояснения к столбцам:

Ветер - указаны скорость ветра в м/с - средняя за 10 мин, порывы в срок и между сроками (в фигурных скобках) и направление, откуда дует ветер: С - северный, СВ - северо-восточный, В - восточный, ЮВ - юго-восточный, Ю - южный, ЮЗ - юго-западный, З - западный, СЗ - северо-западный.
Видимость - горизонтальная дальность видимости в метрах или километрах. При видимости от 1 до 10 км при отсутствии осадков обычно наблюдается дымка, при ухудшении видимости до 1 км и менее - туман. В сухую погоду видимость может ухудшаться дымом, пылью или мглою.
Явления - указаны атмосферные явления, наблюдавшиеся в срок или в последний час перед сроком; фигурными скобками обозначены явления, наблюдавшиеся между сроками (за 1-3 часа до срока); квадратными скобками обозначены град или гололедные отложения с указанием их диаметра в мм.
Облачность - указаны через наклонную черту общая и нижняя облачность в баллах и высота нижней границы облаков в метрах; квадратными скобками обозначены формы облаков: Ci - перистые, Cs - перисто-слоистые, Cc - перисто-кучевые, Ac - высококучевые, As - высокослоистые, Sc - слоисто-кучевые, Ns - слоисто-дождевые, Cu - кучевые, Cb - кучево-дождевые. Подробнее классификацию облаков см. в Атласе облаков (PDF).
T - Температура воздуха - температура, измеренная на высоте 2 м над землей.
Td - Температура точки росы - температура, при понижении до которой содержащийся в воздухе водяной пар достигнет насыщения.
f - Относительная влажность воздуха - влажноcть воздуха, измеренная на высоте 2 м над землей.
Te - Эффективная температура - температура, которую ощущает одетый по сезону человек в тени. Характеристика душности погоды. При расчете учитывается влияние влажности воздуха и скорости ветра на теплоощущения человека.
Tes - Эффективная температура на солнце - температура, которую ощущает человек, с поправкой на солнечный нагрев. Характеристика знойности погоды. Зависит от высоты солнца над горизонтом, облачности и скорости ветра. Ночью, в пасмурную погоду, а также при ветре 12 м/с и более поправка равна нулю.
P - Атмосферное давление - приведенное к уровню моря атмосферное давление.
Po - Атмосферное давление - измеренное на уровне метеостанции атмосферное давление.
Tmin - Минимальная температура - минимум температуры воздуха на высоте 2 м над землей.
Tmax - Максимальная температура - максимум температуры воздуха на высоте 2 м над землей.
R - Количество осадков - Количество выпавших осадков за период времени, мм. При наведении курсора мыши на число - период времени, за который выпало указанное количество осадков.
R24 - Количество осадков - Количество выпавших осадков за 24 часа, мм.
S - Снежный покров - Высота снежного покрова, см. При наведении курсора мыши на число - состояние снежного покрова и степень покрытия местности в баллах.